LAGEOS 2                
1 22195U 92070B   19260.86003167 -.00000009  00000-0  00000-0 0  9996
2 22195  52.6769  24.0761 0138343 189.5100 105.3970  6.47293600636098
IRIS R/B                
1 22196U 92070D   19261.21156217  .00005854  25639-5  16861-3 0  9999
2 22196  41.1529 176.1045 1566997 209.4737 140.7953 12.37531992 65421
LAGEOS 2 AKM (MAGE 1S)  
1 22197U 92070E   19258.33368694 -.00000009  00000-0  00000+0 0  9995
2 22197  52.6734  22.8083 0138177 191.0431 168.7079  6.47399583636039